Time,TemperatureF,DewpointF,PressureIn,WindDirection,WindDirectionDegrees,WindSpeedMPH,WindSpeedGustMPH,Humidity,HourlyPrecipIn,Conditions,Clouds,dailyrainin,SolarRadiationWatts/m^2,SoftwareType,DateUTC
2013-09-20 00:12:00,57.7,54.0,30.17,WSW,254,0.0,0.0,87,0.00,,,0.00,0,weatherlink.com 1.10,2013-09-20 04:12:00,
2013-09-20 00:27:00,57.5,54.0,30.17,WSW,254,0.0,0.0,88,0.00,,,0.00,0,weatherlink.com 1.10,2013-09-20 04:27:00,
2013-09-20 00:42:00,57.3,54.0,30.17,WSW,254,0.0,0.0,88,0.00,,,0.00,0,weatherlink.com 1.10,2013-09-20 04:42:00,
2013-09-20 00:57:00,57.3,54.0,30.16,WSW,254,0.0,0.0,89,0.00,,,0.00,0,weatherlink.com 1.10,2013-09-20 04:57:00,
2013-09-20 01:12:00,57.4,54.0,30.16,WSW,254,0.0,0.0,89,0.00,,,0.00,0,weatherlink.com 1.10,2013-09-20 05:12:00,
2013-09-20 01:27:00,57.3,54.0,30.17,WSW,254,0.0,0.0,89,0.00,,,0.00,0,weatherlink.com 1.10,2013-09-20 05:27:00,
2013-09-20 01:42:00,57.1,54.0,30.17,WSW,254,0.0,0.0,89,0.00,,,0.00,0,weatherlink.com 1.10,2013-09-20 05:42:00,
2013-09-20 01:57:00,56.9,54.0,30.17,WSW,254,0.0,0.0,89,0.00,,,0.00,0,weatherlink.com 1.10,2013-09-20 05:57:00,
2013-09-20 02:12:00,57.1,55.0,30.16,WSW,254,0.0,0.0,91,0.00,,,0.00,0,weatherlink.com 1.10,2013-09-20 06:12:00,
2013-09-20 02:27:00,57.3,55.0,30.16,WSW,254,0.0,1.0,91,0.00,,,0.00,0,weatherlink.com 1.10,2013-09-20 06:27:00,
2013-09-20 02:42:00,57.4,55.0,30.16,WSW,254,0.0,1.0,90,0.00,,,0.00,0,weatherlink.com 1.10,2013-09-20 06:42:00,
2013-09-20 02:57:00,57.5,55.0,30.16,WSW,254,0.0,1.0,90,0.00,,,0.00,0,weatherlink.com 1.10,2013-09-20 06:57:00,
2013-09-20 03:12:00,57.5,55.0,30.17,WSW,254,1.0,1.0,90,0.00,,,0.00,0,weatherlink.com 1.10,2013-09-20 07:12:00,
2013-09-20 03:27:00,57.3,55.0,30.17,WSW,254,0.0,1.0,90,0.00,,,0.00,0,weatherlink.com 1.10,2013-09-20 07:27:00,
2013-09-20 03:42:00,57.1,54.0,30.17,WSW,254,0.0,1.0,90,0.00,,,0.00,0,weatherlink.com 1.10,2013-09-20 07:42:00,
2013-09-20 03:57:00,56.8,54.0,30.17,WSW,254,0.0,0.0,90,0.00,,,0.00,0,weatherlink.com 1.10,2013-09-20 07:57:00,
2013-09-20 04:12:00,56.5,54.0,30.16,WSW,254,0.0,1.0,90,0.00,,,0.00,0,weatherlink.com 1.10,2013-09-20 08:12:00,
2013-09-20 04:27:00,56.2,53.0,30.16,WSW,254,0.0,0.0,90,0.00,,,0.00,0,weatherlink.com 1.10,2013-09-20 08:27:00,
2013-09-20 04:42:00,56.0,54.0,30.16,WSW,254,0.0,0.0,91,0.00,,,0.00,0,weatherlink.com 1.10,2013-09-20 08:42:00,
2013-09-20 04:57:00,56.0,54.0,30.16,WSW,254,0.0,1.0,91,0.00,,,0.00,0,weatherlink.com 1.10,2013-09-20 08:57:00,
2013-09-20 05:12:00,55.9,53.0,30.16,WSW,254,0.0,1.0,91,0.00,,,0.00,0,weatherlink.com 1.10,2013-09-20 09:12:00,
2013-09-20 05:27:00,55.7,53.0,30.16,WSW,254,0.0,1.0,91,0.00,,,0.00,0,weatherlink.com 1.10,2013-09-20 09:27:00,
2013-09-20 05:42:00,55.5,53.0,30.16,WSW,256,0.0,1.0,92,0.00,,,0.00,0,weatherlink.com 1.10,2013-09-20 09:42:00,
2013-09-20 05:57:00,55.3,53.0,30.16,WSW,256,0.0,1.0,92,0.00,,,0.00,0,weatherlink.com 1.10,2013-09-20 09:57:00,
2013-09-20 06:12:00,55.3,53.0,30.16,WSW,256,0.0,1.0,92,0.00,,,0.00,0,weatherlink.com 1.10,2013-09-20 10:12:00,
2013-09-20 06:27:00,55.1,53.0,30.16,WSW,256,0.0,1.0,92,0.00,,,0.00,0,weatherlink.com 1.10,2013-09-20 10:27:00,
2013-09-20 06:42:00,55.0,53.0,30.17,WSW,256,0.0,1.0,92,0.00,,,0.00,0,weatherlink.com 1.10,2013-09-20 10:42:00,
2013-09-20 06:57:00,55.1,53.0,30.17,WSW,256,0.0,0.0,93,0.00,,,0.00,12,weatherlink.com 1.10,2013-09-20 10:57:00,
2013-09-20 07:12:00,54.9,53.0,30.18,WSW,256,0.0,1.0,92,0.00,,,0.00,21,weatherlink.com 1.10,2013-09-20 11:12:00,
2013-09-20 07:27:00,54.7,53.0,30.17,WSW,256,0.0,0.0,92,0.00,,,0.00,28,weatherlink.com 1.10,2013-09-20 11:27:00,
2013-09-20 07:42:00,54.9,53.0,30.17,WSW,256,0.0,1.0,93,0.00,,,0.00,33,weatherlink.com 1.10,2013-09-20 11:42:00,
2013-09-20 07:57:00,55.4,54.0,30.17,West,259,0.0,0.0,93,0.00,,,0.00,46,weatherlink.com 1.10,2013-09-20 11:57:00,
2013-09-20 08:13:00,56.5,55.0,30.17,West,259,0.0,1.0,94,0.00,,,0.00,221,weatherlink.com 1.10,2013-09-20 12:13:00,
2013-09-20 08:28:00,59.2,58.0,30.17,West,259,0.0,0.0,94,0.00,,,0.00,265,weatherlink.com 1.10,2013-09-20 12:28:00,
2013-09-20 08:43:00,60.1,58.0,30.17,West,259,0.0,1.0,92,0.00,,,0.00,311,weatherlink.com 1.10,2013-09-20 12:43:00,
2013-09-20 08:58:00,62.0,58.0,30.17,WSW,255,0.0,1.0,87,0.00,,,0.00,357,weatherlink.com 1.10,2013-09-20 12:58:00,
2013-09-20 09:13:00,64.9,59.0,30.18,WSW,255,0.0,1.0,81,0.00,,,0.00,401,weatherlink.com 1.10,2013-09-20 13:13:00,
2013-09-20 09:43:00,69.6,60.0,30.18,NNW,332,0.0,1.0,72,0.00,,,0.00,475,weatherlink.com 1.10,2013-09-20 13:43:00,
2013-09-20 09:58:00,70.7,61.0,30.18,SW,234,0.0,1.0,71,0.00,,,0.00,519,weatherlink.com 1.10,2013-09-20 13:58:00,
2013-09-20 10:13:00,71.9,62.0,30.18,East,90,0.0,1.0,70,0.00,,,0.00,552,weatherlink.com 1.10,2013-09-20 14:13:00,
2013-09-20 10:28:00,72.8,60.0,30.18,ESE,113,1.0,1.0,65,0.00,,,0.00,587,weatherlink.com 1.10,2013-09-20 14:28:00,
2013-09-20 10:43:00,73.6,62.0,30.18,SSE,159,0.0,1.0,66,0.00,,,0.00,624,weatherlink.com 1.10,2013-09-20 14:43:00,
2013-09-20 10:58:00,74.3,62.0,30.17,SE,125,0.0,2.0,65,0.00,,,0.00,65,weatherlink.com 1.10,2013-09-20 14:58:00,
2013-09-20 11:13:00,73.5,61.0,30.16,SW,216,2.0,2.0,64,0.00,,,0.00,60,weatherlink.com 1.10,2013-09-20 15:13:00,
2013-09-20 11:28:00,72.5,61.0,30.16,SSW,204,0.0,1.0,67,0.00,,,0.00,62,weatherlink.com 1.10,2013-09-20 15:28:00,
2013-09-20 11:43:00,71.9,58.0,30.16,WSW,246,0.0,1.0,62,0.00,,,0.00,65,weatherlink.com 1.10,2013-09-20 15:43:00,
2013-09-20 11:58:00,71.5,57.0,30.16,SSW,211,1.0,2.0,61,0.00,,,0.00,62,weatherlink.com 1.10,2013-09-20 15:58:00,
2013-09-20 12:13:00,71.5,58.0,30.16,SSW,200,2.0,2.0,63,0.00,,,0.00,65,weatherlink.com 1.10,2013-09-20 16:13:00,
2013-09-20 12:28:00,71.6,58.0,30.16,West,281,0.0,4.0,62,0.00,,,0.00,67,weatherlink.com 1.10,2013-09-20 16:28:00,
2013-09-20 12:43:00,71.9,59.0,30.15,SW,223,2.0,3.0,63,0.00,,,0.00,63,weatherlink.com 1.10,2013-09-20 16:43:00,
2013-09-20 12:58:00,72.3,58.0,30.14,SE,136,0.0,4.0,62,0.00,,,0.00,90,weatherlink.com 1.10,2013-09-20 16:58:00,
2013-09-20 13:13:00,73.0,58.0,30.14,SW,233,1.0,2.0,60,0.00,,,0.00,84,weatherlink.com 1.10,2013-09-20 17:13:00,
2013-09-20 13:28:00,74.4,57.0,30.13,South,171,0.0,3.0,54,0.00,,,0.00,754,weatherlink.com 1.10,2013-09-20 17:28:00,
2013-09-20 13:44:00,75.6,57.0,30.13,ESE,117,0.0,3.0,52,0.00,,,0.00,752,weatherlink.com 1.10,2013-09-20 17:44:00,
2013-09-20 13:59:00,76.5,57.0,30.12,North,5,0.0,4.0,52,0.00,,,0.00,703,weatherlink.com 1.10,2013-09-20 17:59:00,
2013-09-20 14:14:00,77.3,60.0,30.12,SE,138,1.0,5.0,56,0.00,,,0.00,675,weatherlink.com 1.10,2013-09-20 18:14:00,
2013-09-20 14:29:00,77.7,60.0,30.12,WNW,300,0.0,4.0,55,0.00,,,0.00,642,weatherlink.com 1.10,2013-09-20 18:29:00,
2013-09-20 14:44:00,77.4,61.0,30.11,WNW,283,1.0,4.0,57,0.00,,,0.00,615,weatherlink.com 1.10,2013-09-20 18:44:00,
2013-09-20 14:59:00,77.1,60.0,30.11,NNE,27,1.0,3.0,55,0.00,,,0.00,591,weatherlink.com 1.10,2013-09-20 18:59:00,
2013-09-20 15:14:00,76.9,58.0,30.10,ESE,102,0.0,2.0,52,0.00,,,0.00,239,weatherlink.com 1.10,2013-09-20 19:14:00,
2013-09-20 15:29:00,76.5,57.0,30.10,ESE,119,0.0,3.0,51,0.00,,,0.00,95,weatherlink.com 1.10,2013-09-20 19:29:00,
2013-09-20 15:44:00,75.7,55.0,30.10,ESE,107,0.0,3.0,49,0.00,,,0.00,200,weatherlink.com 1.10,2013-09-20 19:44:00,
2013-09-20 15:59:00,75.1,57.0,30.09,SE,142,0.0,3.0,54,0.00,,,0.00,84,weatherlink.com 1.10,2013-09-20 19:59:00,
2013-09-20 16:14:00,74.5,58.0,30.09,East,98,0.0,2.0,57,0.00,,,0.00,53,weatherlink.com 1.10,2013-09-20 20:14:00,
2013-09-20 16:29:00,73.6,58.0,30.09,WSW,248,0.0,3.0,59,0.00,,,0.00,49,weatherlink.com 1.10,2013-09-20 20:29:00,
2013-09-20 16:44:00,73.0,58.0,30.10,SSW,200,0.0,2.0,59,0.00,,,0.00,49,weatherlink.com 1.10,2013-09-20 20:44:00,
2013-09-20 17:14:00,72.0,57.0,30.10,WSW,248,0.0,3.0,60,0.00,,,0.00,37,weatherlink.com 1.10,2013-09-20 21:14:00,
2013-09-20 17:29:00,71.3,57.0,30.10,SSE,166,0.0,2.0,61,0.00,,,0.00,33,weatherlink.com 1.10,2013-09-20 21:29:00,
2013-09-20 17:44:00,70.7,57.0,30.11,NW,313,1.0,2.0,63,0.00,,,0.00,28,weatherlink.com 1.10,2013-09-20 21:44:00,
2013-09-20 17:59:00,70.1,57.0,30.11,WSW,248,0.0,0.0,63,0.00,,,0.00,19,weatherlink.com 1.10,2013-09-20 21:59:00,
2013-09-20 18:14:00,69.5,57.0,30.10,WSW,249,0.0,0.0,64,0.00,,,0.00,14,weatherlink.com 1.10,2013-09-20 22:14:00,
2013-09-20 18:29:00,68.6,56.0,30.09,SW,235,0.0,2.0,65,0.00,,,0.00,11,weatherlink.com 1.10,2013-09-20 22:29:00,
2013-09-20 18:44:00,67.9,56.0,30.10,West,259,0.0,2.0,66,0.00,,,0.00,5,weatherlink.com 1.10,2013-09-20 22:44:00,
2013-09-20 18:59:00,67.1,56.0,30.10,West,259,0.0,0.0,67,0.00,,,0.00,0,weatherlink.com 1.10,2013-09-20 22:59:00,
2013-09-20 19:14:00,66.3,55.0,30.09,West,259,0.0,0.0,68,0.00,,,0.00,0,weatherlink.com 1.10,2013-09-20 23:14:00,
2013-09-20 19:29:00,65.4,55.0,30.10,WSW,246,0.0,0.0,70,0.00,,,0.00,0,weatherlink.com 1.10,2013-09-20 23:29:00,
2013-09-20 19:44:00,64.5,55.0,30.10,WSW,246,0.0,0.0,72,0.00,,,0.00,0,weatherlink.com 1.10,2013-09-20 23:44:00,
2013-09-20 19:59:00,63.8,55.0,30.10,NNE,15,0.0,1.0,74,0.00,,,0.00,0,weatherlink.com 1.10,2013-09-20 23:59:00,
2013-09-20 20:14:00,63.2,56.0,30.10,NNE,15,0.0,0.0,77,0.00,,,0.00,0,weatherlink.com 1.10,2013-09-21 00:14:00,
2013-09-20 20:29:00,62.7,56.0,30.10,NNE,15,0.0,0.0,78,0.00,,,0.00,0,weatherlink.com 1.10,2013-09-21 00:29:00,
2013-09-20 20:44:00,62.2,56.0,30.10,NNE,15,0.0,0.0,80,0.00,,,0.00,0,weatherlink.com 1.10,2013-09-21 00:44:00,
2013-09-20 20:59:00,61.6,56.0,30.11,NNE,15,0.0,0.0,82,0.00,,,0.00,0,weatherlink.com 1.10,2013-09-21 00:59:00,
2013-09-20 21:14:00,61.1,56.0,30.11,NNE,15,0.0,0.0,83,0.00,,,0.00,0,weatherlink.com 1.10,2013-09-21 01:14:00,
2013-09-20 21:29:00,60.8,56.0,30.11,NNE,15,0.0,0.0,85,0.00,,,0.00,0,weatherlink.com 1.10,2013-09-21 01:29:00,
2013-09-20 21:44:00,60.6,56.0,30.11,NNE,15,0.0,0.0,86,0.00,,,0.00,0,weatherlink.com 1.10,2013-09-21 01:44:00,
2013-09-20 21:59:00,60.3,56.0,30.10,NNE,15,0.0,0.0,86,0.00,,,0.00,0,weatherlink.com 1.10,2013-09-21 01:59:00,
2013-09-20 22:14:00,60.0,56.0,30.10,NNE,15,0.0,0.0,87,0.00,,,0.00,0,weatherlink.com 1.10,2013-09-21 02:14:00,
2013-09-20 22:29:00,59.9,56.0,30.10,NNE,15,0.0,0.0,88,0.00,,,0.00,0,weatherlink.com 1.10,2013-09-21 02:29:00,
2013-09-20 22:44:00,59.6,56.0,30.10,NNE,15,0.0,0.0,88,0.00,,,0.00,0,weatherlink.com 1.10,2013-09-21 02:44:00,
2013-09-20 22:59:00,59.4,56.0,30.10,NNE,15,0.0,0.0,89,0.00,,,0.00,0,weatherlink.com 1.10,2013-09-21 02:59:00,
2013-09-20 23:14:00,59.2,56.0,30.10,NNE,15,0.0,0.0,89,0.00,,,0.00,0,weatherlink.com 1.10,2013-09-21 03:14:00,
2013-09-20 23:29:00,59.0,56.0,30.11,NNE,15,0.0,0.0,89,0.00,,,0.00,0,weatherlink.com 1.10,2013-09-21 03:29:00,
2013-09-20 23:44:00,58.9,56.0,30.10,NNE,30,0.0,0.0,90,0.00,,,0.00,0,weatherlink.com 1.10,2013-09-21 03:44:00,
2013-09-20 23:59:00,58.7,56.0,30.09,WNW,298,0.0,0.0,90,0.00,,,0.00,0,weatherlink.com 1.10,2013-09-21 03:59:00,